Regional Weather Roundup
Issued by NWS

Home | Current Version | Previous Version | Text Only | Print | Product List | Glossary Off
Versions: 1 2 3 4 5 6 7 8 9 10 11 12 13 14 15 16 17 18 19 20 21 22 23 24 25 26 27 28 29 30 31 32 33 34 35 36 37 38 39 40 41 42 43 44 45 46 47 48 49 50

000
ASUS43 KMKX 271411
RWRWI

WISCONSIN REGIONAL WEATHER ROUNDUP
NATIONAL WEATHER SERVICE MILWAUKEE/SULLIVAN WI
900 AM CDT TUE SEP 27 2016

NOTE: "FAIR" INDICATES FEW OR NO CLOUDS BELOW 12,000 FEET WITH NO
SIGNIFICANT WEATHER AND/OR OBSTRUCTIONS TO VISIBILITY.

WIZ001-002-006>008-014>016-023>028-271500-
NORTHWEST WISCONSIN

CITY           SKY/WX    TMP DP  RH WIND       PRES   REMARKS
SUPERIOR ARPT  CLOUDY    52  45  76 NW14      29.70R
ASHLAND        LGT RAIN  50  47  89 W10       29.65S
HAYWARD        CLOUDY    50  44  80 W8        29.69F
SIREN          CLOUDY    52  43  71 W10G17    29.74F
CUMBERLAND     CLOUDY    48  41  76 W13       29.74S
RICE LAKE      CLOUDY    51  42  71 W16       29.75S
CHETEK         NOT AVBL
LADYSMITH      CLOUDY    50  46  84 W10G17    29.72R
EAU CLAIRE     CLOUDY    51  42  71 W14       29.75S
MENOMONIE      MOSUNNY   51  43  74 W13       29.77S
NEW RICHMOND   MOSUNNY   51  41  68 W16G25    29.78F
OSCEOLA        CLOUDY    52  42  70 W17G24    29.81S
$$

WIZ003>005-009-010-017-018-271500-
NORTH CENTRAL WISCONSIN

CITY           SKY/WX    TMP DP  RH WIND       PRES   REMARKS
MANITOWISH WTR NOT AVBL
ARBOR VITAE    CLOUDY    50  47  88 NW15G22   29.62S
WOODRUFF       CLOUDY    50  47  88 NW15G22   29.62S
RHINELANDER    CLOUDY    49  47  93 W16G23    29.63S
EAGLE RIVER    DRIZZLE   47  46  97 NW10G22   29.60R
LAND O LAKES   CLOUDY    47  45  93 W10G17    29.61R FOG
PHILLIPS       CLOUDY    46  46 100 W3        29.66S
TOMAHAWK       LGT RAIN  47  45  90 W8        29.66S
MEDFORD        CLOUDY    47  47 100 W14       29.69S
MERRILL        CLOUDY    48  47  93 W14       29.67S
$$

WIZ029-030-035-036-043>047-271500-
CENTRAL WISCONSIN

CITY           SKY/WX    TMP DP  RH WIND       PRES   REMARKS
WAUSAU         CLOUDY    50  46  86 W15       29.67S
MOSINEE        NOT AVBL
MARSHFIELD     LGT RAIN  51  43  74 W12G22    29.71S
STEVENS POINT  DRIZZLE   50  42  74 W14G20    29.70S
WAUPACA        CLOUDY    55  43  66 W12G18    29.70S
WAUTOMA        CLOUDY    52  43  71 W10       29.73S
WISC RAPIDS    PTSUNNY   52  43  71 W13G20    29.73S
CAMP DOUGLAS   PTSUNNY   52  41  66 W16       29.75F
$$

WIZ011>013-019>022-031-037>040-048>050-271500-
NORTHEAST WISCONSIN

CITY           SKY/WX    TMP DP  RH WIND       PRES   REMARKS
ANTIGO         CLOUDY    47  45  91 W15G22    29.64F
SHAWANO        CLOUDY    54  45  71 W9        29.66R
OCONTO         NOT AVBL
STURGEON BAY   CLOUDY    55  46  71 W16G23    29.62F
GREEN BAY      PTSUNNY   53  46  77 W12G20    29.66R
MANITOWOC      CLOUDY    54  43  66 MISG      29.68R
APPLETON       PTSUNNY   52  39  62 W12G17    29.67S
CLINTONVILLE   NOT AVBL
OSHKOSH        CLOUDY    52  42  69 VRB7G17   29.70R
$$

WIZ032>034-041-042-053>061-271500-
SOUTHWEST WISCONSIN

CITY           SKY/WX    TMP DP  RH WIND       PRES   REMARKS
LA CROSSE      SUNNY     54  41  61 W16       29.80F
SPARTA         MOSUNNY   51  42  70 W13       29.78F
VIROQUA        SUNNY     52  38  60 W12G17    29.81S
BOSCOBEL       SUNNY     56  39  53 W10       29.84R
PRAIRIE DU CHI SUNNY     55  37  51 W10G18    29.85S
PLATTEVILLE    SUNNY     54  42  63 W15G21    29.85S
$$

WIZ056-057-062-063-064-067-068-271500-
SOUTH CENTRAL WISCONSIN

CITY           SKY/WX    TMP DP  RH WIND       PRES   REMARKS
REEDSBURG      NOT AVBL
BARABOO/DELLS  PTSUNNY   52  38  58 W9G21     29.77S
LONE ROCK      SUNNY     54  40  59 W17       29.82R
MINERAL POINT  SUNNY     54  37  54 W13G21    29.82S
MADISON        MOSUNNY   53  38  56 W9G18     29.78R
MIDDLETON      NOT AVBL
WATERTOWN      SUNNY     54  40  59 W15G21    29.76S
MONROE         SUNNY     54  37  54 W20G26    29.82S
JANESVILLE     SUNNY     55  37  50 W12G20    29.80F
$$

WIZ051-052-058>065-066-070>072-271500-
SOUTHEAST WISCONSIN

CITY           SKY/WX    TMP DP  RH WIND       PRES   REMARKS
MILWAUKEE      MOSUNNY   57  39  51 W15G24    29.76R
WAUKESHA       SUNNY     52  39  62 W15G21    29.77S
MILWAUKEE/TIMM SUNNY     54  37  54 W15G26    29.75F
RACINE         SUNNY     56  40  55 W14G23    29.77F
BURLINGTON     SUNNY     54  38  53 W12G24    29.77F
KENOSHA        SUNNY     56  40  55 W15G26    29.78S
FOND DU LAC    CLOUDY    53  42  66 W13G20    29.71F
SHEBOYGAN      CLOUDY    53  41  63 W17G24    29.70S
WEST BEND      PTSUNNY   52  39  62 W17       29.73S
JUNEAU         PTSUNNY   52  41  64 W14G22    29.75S
$$

LSZ147-162-271500-
LAKE SUPERIOR

STATION/POSITION TIME  TEMP    WIND        PRES    WAVE
                       AIR SEA DIR/SP/G            HT/PER
                 (UTC) (F)     (DEG/KT/KT) (MB)    (FT/S)
W MID LAKE BUOY  1350   50 48  300/ 17/ 23 1000.7R   4/ 5
DEVILS ISLAND    1400   51     290/ 20/ 24 1003.1R
PORT WING        1305   53     270/ 20/ 25 1004.4
SAXON HARBOR     1340   51     270/  8/ 12 1003.4F
$$

LMZ867-665-643>646-271500-
LAKE MICHIGAN

STATION/POSITION TIME  TEMP    WIND        PRES    WAVE
                       AIR SEA DIR/SP/G            HT/PER
                 (UTC) (F)     (DEG/KT/KT) (MB)    (FT/S)
CHAMBERS ISLAND  1300   54     230/ 12/ 19 1001.7F
N MID LAKE BUOY  1350   56 66  250/ 23/ 27 1000.3R   6/ 6
NORTHPORT PIER   1300   54     250/  7/ 16 1001.7F
SISTER BAY       1338   57     260/ 21/ 25   N/A
KEWAUNEE LAKESHO 1300   54     260/  8/ 13 1003.5F
SHEBOYGAN LAKESH 1400   54     270/ 18/ 21 1005.2S
PORT WASHINGTON  1340   56     280/ 10/ 22 1007.1F
ATWATER BUOY     1400   56     240/ 17/ 21 1007.0F
MILWAUKEE LAKESH 1310   55     260/ 13/ 16   N/A
S MID LAKE BUOY  1350   60 70  250/ 25/ 29 1006.7R   6/ 5
KENOSHA   LAKESH 1400   56     250/ 16/ 22 1008.5S
$$

TC  - TEMPERATURE IN CELSIUS
VSB - VISIBILITY IN STATUTE MILES
WCI - WIND CHILL INDEX
HX  - HEAT INDEX




USA.gov is the U.S. government's official web portal to all federal, state and local government web resources and services.